Previsão horária em Cayo Jutías

Hoje, 31 Julho, Sábado

Tempo Temperatura Precipitação Vento Pressão Humidade
00:00 +27°C° 0 mm 3 m/s 762 mmHg 87%
01:00 +27°C° 0 mm 2 m/s 762 mmHg 87%
02:00 +26°C° 0 mm 2 m/s 762 mmHg 88%
03:00 +26°C° 0 mm 2 m/s 762 mmHg 89%
04:00 +27°C° 0 mm 2 m/s 762 mmHg 87%
05:00 +27°C° 0 mm 2 m/s 762 mmHg 86%
06:00 +27°C° 0 mm 2 m/s 762 mmHg 85%
07:00 +30°C° 0 mm 2 m/s 763 mmHg 74%
08:00 +32°C° 0 mm 2 m/s 763 mmHg 64%
09:00 +34°C° 0 mm 1 m/s 763 mmHg 53%
10:00 +37°C° 0 mm 2 m/s 763 mmHg 47%
11:00 +38°C° 0 mm 3 m/s 762 mmHg 42%
12:00 +40°C° 0 mm 4 m/s 762 mmHg 36%
13:00 +38°C° 0.3 mm 4 m/s 762 mmHg 40%
14:00 +37°C° 0.3 mm 4 m/s 762 mmHg 45%
15:00 +37°C° 0.3 mm 4 m/s 762 mmHg 49%
16:00 +35°C° 0.9 mm 3 m/s 762 mmHg 59%
17:00 +33°C° 0.9 mm 3 m/s 762 mmHg 69%
18:00 +30°C° 0.9 mm 3 m/s 762 mmHg 79%
19:00 +29°C° 0.2 mm 3 m/s 762 mmHg 82%
20:00 +28°C° 0.2 mm 3 m/s 763 mmHg 84%
21:00 +28°C° 0.2 mm 3 m/s 763 mmHg 87%
22:00 +27°C° 0 mm 3 m/s 763 mmHg 87%
23:00 +27°C° 0 mm 3 m/s 762 mmHg 88%

Amanhã, 1 Agosto, Domingo

Tempo Temperatura Precipitação Vento Pressão Humidade
00:00 +27°C° 0 mm 3 m/s 762 mmHg 89%
01:00 +26°C° 0 mm 2 m/s 762 mmHg 89%
02:00 +26°C° 0 mm 2 m/s 762 mmHg 89%
03:00 +26°C° 0 mm 2 m/s 762 mmHg 89%
04:00 +27°C° 0 mm 2 m/s 762 mmHg 87%
05:00 +27°C° 0 mm 1 m/s 762 mmHg 85%
06:00 +27°C° 0 mm 1 m/s 762 mmHg 84%
07:00 +30°C° 0 mm 1 m/s 763 mmHg 73%
08:00 +32°C° 0 mm 1 m/s 763 mmHg 62%
09:00 +35°C° 0 mm 1 m/s 763 mmHg 51%
10:00 +37°C° 0 mm 2 m/s 763 mmHg 49%
11:00 +38°C° 0 mm 3 m/s 763 mmHg 46%
12:00 +40°C° 0 mm 4 m/s 762 mmHg 44%
13:00 +36°C° 0.4 mm 4 m/s 762 mmHg 54%
14:00 +34°C° 0.4 mm 5 m/s 762 mmHg 65%
15:00 +32°C° 0.4 mm 5 m/s 762 mmHg 76%
16:00 +29°C° 3.3 mm 4 m/s 762 mmHg 81%
17:00 +27°C° 3.3 mm 3 m/s 762 mmHg 86%
18:00 +26°C° 3.3 mm 2 m/s 762 mmHg 91%
19:00 +26°C° 0.2 mm 2 m/s 762 mmHg 90%
20:00 +27°C° 0.2 mm 3 m/s 762 mmHg 89%
21:00 +27°C° 0.2 mm 3 m/s 762 mmHg 88%
22:00 +27°C° 0 mm 3 m/s 762 mmHg 89%
23:00 +27°C° 0 mm 2 m/s 762 mmHg 90%

Depois de amanhã, 2 Agosto, Segunda-feira

Tempo Temperatura Precipitação Vento Pressão Humidade
00:00 +27°C° 0 mm 2 m/s 762 mmHg 91%
01:00 +26°C° 0 mm 2 m/s 762 mmHg 91%
02:00 +26°C° 0 mm 1 m/s 762 mmHg 92%
03:00 +26°C° 0 mm 1 m/s 762 mmHg 93%
04:00 +27°C° 0 mm 1 m/s 762 mmHg 92%
05:00 +27°C° 0 mm 1 m/s 762 mmHg 92%
06:00 +27°C° 0 mm 2 m/s 762 mmHg 91%
07:00 +30°C° 0 mm 2 m/s 762 mmHg 80%
08:00 +32°C° 0 mm 1 m/s 762 mmHg 69%
09:00 +34°C° 0 mm 1 m/s 762 mmHg 58%
10:00 +36°C° 0.1 mm 2 m/s 762 mmHg 53%
11:00 +37°C° 0.1 mm 3 m/s 762 mmHg 49%
12:00 +38°C° 0.1 mm 3 m/s 762 mmHg 44%
13:00 +37°C° 1.1 mm 3 m/s 761 mmHg 48%
14:00 +36°C° 1.1 mm 3 m/s 761 mmHg 52%
15:00 +35°C° 1.1 mm 2 m/s 761 mmHg 56%
16:00 +33°C° 2.2 mm 3 m/s 761 mmHg 66%
17:00 +32°C° 2.2 mm 4 m/s 761 mmHg 75%
18:00 +29°C° 2.2 mm 5 m/s 761 mmHg 84%
19:00 +28°C° 0.4 mm 4 m/s 762 mmHg 86%
20:00 +28°C° 0.4 mm 3 m/s 762 mmHg 87%
21:00 +27°C° 0.4 mm 2 m/s 762 mmHg 88%
22:00 +27°C° 0 mm 2 m/s 762 mmHg 89%
23:00 +27°C° 0 mm 2 m/s 762 mmHg 89%

3 Agosto, Terça-feira

Tempo Temperatura Precipitação Vento Pressão Humidade
00:00 +27°C° 0 mm 1 m/s 761 mmHg 90%
01:00 +27°C° 0 mm 1 m/s 761 mmHg 90%
02:00 +27°C° 0 mm 1 m/s 761 mmHg 90%
03:00 +27°C° 0 mm 1 m/s 760 mmHg 90%
04:00 +27°C° 0 mm 1 m/s 760 mmHg 89%
05:00 +27°C° 0 mm 1 m/s 761 mmHg 89%
06:00 +27°C° 0 mm 1 m/s 761 mmHg 88%
07:00 +30°C° 0 mm 1 m/s 761 mmHg 78%
08:00 +32°C° 0 mm 1 m/s 762 mmHg 67%
09:00 +32°C° 0 mm 0 m/s 762 mmHg 57%
10:00 +34°C° 0.6 mm 1 m/s 762 mmHg 57%
11:00 +34°C° 0.6 mm 1 m/s 762 mmHg 58%
12:00 +35°C° 0.6 mm 2 m/s 762 mmHg 59%
13:00 +34°C° 0.7 mm 2 m/s 761 mmHg 65%
14:00 +32°C° 0.7 mm 2 m/s 761 mmHg 70%
15:00 +31°C° 0.7 mm 3 m/s 761 mmHg 76%
16:00 +30°C° 0.5 mm 2 m/s 761 mmHg 79%
17:00 +29°C° 0.5 mm 2 m/s 761 mmHg 83%
18:00 +29°C° 0.5 mm 2 m/s 761 mmHg 86%
19:00 +28°C° 0 mm 2 m/s 761 mmHg 87%
20:00 +28°C° 0 mm 2 m/s 761 mmHg 88%
21:00 +28°C° 0 mm 2 m/s 761 mmHg 89%
22:00 +27°C° 0 mm 2 m/s 761 mmHg 89%
23:00 +27°C° 0 mm 2 m/s 761 mmHg 90%

4 Agosto, Quarta-feira

Tempo Temperatura Precipitação Vento Pressão Humidade
00:00 +27°C° 0 mm 3 m/s 761 mmHg 91%
01:00 +26°C° 0 mm 3 m/s 760 mmHg 91%
02:00 +26°C° 0 mm 3 m/s 760 mmHg 91%
03:00 +26°C° 0 mm 2 m/s 760 mmHg 90%
04:00 +26°C° 0 mm 2 m/s 760 mmHg 90%
05:00 +26°C° 0 mm 2 m/s 761 mmHg 89%
06:00 +27°C° 0 mm 2 m/s 761 mmHg 88%
07:00 +29°C° 0 mm 2 m/s 761 mmHg 79%
08:00 +31°C° 0 mm 2 m/s 762 mmHg 70%
09:00 +34°C° 0 mm 2 m/s 762 mmHg 60%
10:00 +35°C° 0.3 mm 2 m/s 762 mmHg 60%
11:00 +35°C° 0.3 mm 2 m/s 761 mmHg 61%
12:00 +36°C° 0.3 mm 3 m/s 761 mmHg 61%
13:00 +35°C° 1.8 mm 3 m/s 761 mmHg 64%
14:00 +34°C° 1.8 mm 2 m/s 761 mmHg 68%
15:00 +32°C° 1.8 mm 2 m/s 761 mmHg 72%
16:00 +31°C° 1.6 mm 2 m/s 761 mmHg 78%
17:00 +29°C° 1.6 mm 1 m/s 761 mmHg 84%
18:00 +28°C° 1.6 mm 1 m/s 761 mmHg 90%
19:00 +27°C° 0.5 mm 1 m/s 762 mmHg 90%
20:00 +27°C° 0.5 mm 1 m/s 762 mmHg 90%
21:00 +27°C° 0.5 mm 2 m/s 762 mmHg 90%
22:00 +26°C° 0 mm 2 m/s 762 mmHg 91%
23:00 +26°C° 0 mm 2 m/s 762 mmHg 91%

5 Agosto, Quinta-feira

Tempo Temperatura Precipitação Vento Pressão Humidade
00:00 +26°C° 0 mm 3 m/s 762 mmHg 92%
01:00 +26°C° 0 mm 3 m/s 762 mmHg 92%
02:00 +26°C° 0 mm 3 m/s 761 mmHg 93%
03:00 +26°C° 0 mm 2 m/s 761 mmHg 94%
04:00 +26°C° 0 mm 2 m/s 761 mmHg 93%
05:00 +26°C° 0 mm 2 m/s 762 mmHg 93%
06:00 +27°C° 0 mm 2 m/s 762 mmHg 92%
07:00 +29°C° 0 mm 2 m/s 762 mmHg 82%
08:00 +31°C° 0 mm 2 m/s 763 mmHg 72%
09:00 +34°C° 0 mm 2 m/s 763 mmHg 61%
10:00 +35°C° 0 mm 2 m/s 763 mmHg 56%
11:00 +36°C° 0 mm 2 m/s 763 mmHg 51%
12:00 +37°C° 0 mm 3 m/s 763 mmHg 46%
13:00 +37°C° 0.4 mm 3 m/s 762 mmHg 46%
14:00 +37°C° 0.4 mm 3 m/s 762 mmHg 46%
15:00 +37°C° 0.4 mm 3 m/s 762 mmHg 47%
16:00 +34°C° 1.2 mm 3 m/s 762 mmHg 59%
17:00 +31°C° 1.2 mm 3 m/s 762 mmHg 71%
18:00 +29°C° 1.2 mm 2 m/s 762 mmHg 83%
19:00 +28°C° 0.3 mm 2 m/s 763 mmHg 85%
20:00 +27°C° 0.3 mm 3 m/s 763 mmHg 87%
21:00 +27°C° 0.3 mm 3 m/s 763 mmHg 89%
22:00 +27°C° 0 mm 3 m/s 763 mmHg 91%
23:00 +26°C° 0 mm 3 m/s 763 mmHg 92%
Mostrar mais

Necessitamos do seu Consentimento

A Meteoprog e os seus Fornecedores de Serviços podem armazenar e aceder a dados pessoais como cookies, identificadores do dispositivo ou outras tecnologias semelhantes existentes no seu dispositivo e processar estes dados para personalizar conteúdos e anúncios, assim como funcionalidades nas redes sociais e análise de tráfego.

  • Armazenar e/ou aceder a informações no seu dispositivo

    Os cookies, identificadores do dispositivo ou outras informações podem ser armazenados ou acedidos no seu dispositivo, para os fins acima indicados.

  • Anúncios e conteúdos personalizados, medição de anúncios e conteúdos, dados sobre o público-alvo e desenvolvimento de produtos

    Os anúncios e os conteúdos podem ser personalizados com base num perfil. Podem ser adicionados dados adicionais para uma maior personalização dos anúncios e dos conteúdos. A eficácia dos anúncios e dos conteúdos pode ser medida. Podem ser obtidas informações sobre o público que visualizou os anúncios e os conteúdos. Estes dados podem ser usados para desenvolver ou melhorar sistemas, softwares ou a experiência do utilizador.

Ao clicar em "Eu concordo”, permitirá o uso de cookies, identificadores do dispositivo e web beacons mencionados ou outras tecnologias semelhantes. As configurações do navegador do seu dispositivo podem ser alteradas.

Para certos fins, podem ser invocados interesses legítimos ao invés de consentimento. Pode ler mais informação sobre este assunto na nossa Política de Privacidade e Cookies.